Regional Weather Roundup
Issued by NWS Albany, NY

Home | Current Version | Previous Version | Text Only | Print | Product List | Glossary On
Versions: 1 2 3 4 5 6 7 8 9 10 11 12 13 14 15 16 17 18 19 20 21 22 23 24 25 26 27 28 29 30 31 32 33 34 35 36 37 38 39 40 41 42 43 44 45 46 47 48 49 50
000
ASUS41 KALY 261010
RWRALY

NEW YORK STATE HOURLY WEATHER ROUNDUP
NATIONAL WEATHER SERVICE ALBANY NY
600 AM EDT TUE MAY 26 2015

NOTE: "FAIR" INDICATES FEW OR NO CLOUDS BELOW 12,000 FEET WITH NO
SIGNIFICANT WEATHER AND/OR NO OBSTRUCTIONS TO VISIBILITY.

NYZ032-033-038>043-046>054-057>066-NYZ062>081-261100-
EAST


CITY           SKY/WX    TMP DP  RH WIND       PRES   REMARKS
ALBANY         PTCLDY    71  58  63 S10       30.10R
GLENS FALLS    PTCLDY    69  58  67 S7        30.07R
POUGHKEEPSIE   PTCLDY    66  58  75 SE3       30.16R
NEWBURGH       PTCLDY    66  59  77 W8        30.18R
MONTGOMERY     PTCLDY    63  60  90 SW7       30.16R
WHITE PLAINS   PTCLDY    59  53  80 S3        30.19R
ISLIP          PTCLDY    60  57  89 SW10      30.21R
NEW YORK CITY  PTCLDY    67  54  63 SW8       30.19S
CENTRAL PARK   CLEAR     67  54  63 W8G18     30.22R
$$

NYZ005>009-017-018-044>046-055-056-261100-
CENTRAL


CITY           SKY/WX    TMP DP  RH WIND       PRES   REMARKS
FULTON         MOCLDY    70  61  73 SW6       30.07R
SYRACUSE       CLOUDY    73  59  61 SW10      30.07R
ROME           MOCLDY    70  59  68 SW5       30.08R
ELMIRA         MOCLDY    70  62  76 W5        30.13R
BINGHAMTON     MOCLDY    66  58  75 S7        30.15R
MONTICELLO     PTCLDY    57  55  94 CALM      30.21R
$$

NYZ026>034-041>043-261100-
NORTH


CITY           SKY/WX    TMP DP  RH WIND       PRES   REMARKS
WATERTOWN      CLOUDY    66  62  87 SW7       30.04R
FORT DRUM      NOT AVBL
MASSENA        CLOUDY    67  62  84 SW13      29.99R
SARANAC LAKE   LGT RAIN  63  62  97 SW12      30.05R
PLATTSBURGH    MOCLDY    69  63  81 SW9       29.97S
$$

NYZ001>004-010>016-019>021-261100-
WEST


CITY           SKY/WX    TMP DP  RH WIND       PRES   REMARKS
NIAGARA FALLS  MOCLDY    65  58  78 SW12      30.07R
BUFFALO        MOCLDY    64  58  80 SW7       30.09R
DUNKIRK        PTCLDY    66  60  81 S7        30.10R
JAMESTOWN      PTCLDY    64  57  77 W7        30.15S
WELLSVILLE     MOCLDY    67  59  75 SW7       30.17S
ROCHESTER      MOCLDY    69  63  81 SW7       30.08R
PENN YAN       PTCLDY    65  59  81 CALM      30.11R
$$

             KEY
       WCI = WIND CHILL INDEX
       VSB = VISIBILITY
       HX  = HEAT INDEX
$$


USA.gov is the U.S. government's official web portal to all federal, state and local government web resources and services.